Home   Weather   Nassau   Past weeks

Flag for Bahamas Past Weather in Nassau, Bahamas — Yesterday and Last 2 Weeks

Now
75 °F

Broken clouds.


Feels Like: 77 °F
Forecast: 65 / 76 °F
Wind: No wind

Location: Nassau Airport

Current Time: Jan 20, 2017 at 11:44:28 am

Latest Report: Jan 20, 2017 at 11:00 am


Visibility: N/A

Pressure: 30.06 "Hg

Humidity: 69%

Dew Point: 64 °F

Location of NassauLocation

Past Weather in Nassau — Graph

°F

Nassau Temperature Yesterday

Maximum temperature yesterday: 79 °F (at 10:00 am)
Minimum temperature yesterday: 61 °F (at 7:00 am)
Average temperature yesterday: 72 °F

High & Low Weather Summary for the Past Weeks

 TemperatureHumidityPressure
High84 °F (Jan 7, 1:00 pm)100% (Jan 6, 4:00 am)30.47 "Hg (Jan 6, 4:00 am)
Low61 °F (Jan 19, 7:00 am)23% (Jan 16, 5:00 pm)29.89 "Hg (Jan 5, 2:00 pm)
Average72 °F71%30.20 "Hg
* Reported Jan 5 10:00 am — Jan 20 10:00 am, Nassau, Weather by CustomWeather, © 2017

Note: Actual official high and low records may vary slightly from our data, if they occured in-between our weather recording intervals... More about our weather records

Advertising

Nassau Weather History for the Previous 24 Hours

Scroll right to see more
 ConditionsComfort  
Time TempWeatherWind HumidityBarometerVisibility
10:00 am
Fri, Jan 20
77 °FScattered clouds.3 mph65%30.07 "HgN/A
9:00 am70 °FPartly sunny.No wind83%30.06 "HgN/A
8:00 am68 °FPartly sunny.No wind83%30.06 "HgN/A
7:00 am63 °FPartly sunny.No wind94%30.04 "HgN/A
6:00 am66 °FPassing clouds.N/A88%30.03 "HgN/A
4:00 am66 °FPassing clouds.No wind88%29.99 "HgN/A
2:00 am68 °FPassing clouds.No wind83%29.99 "HgN/A
1:00 am64 °FPassing clouds.No wind94%30.00 "HgN/A
12:00 am68 °FPassing clouds.No wind88%30.01 "HgN/A
11:00 pm
Thu, Jan 19
68 °FPassing clouds.No wind83%30.04 "HgN/A
10:00 pm66 °FPassing clouds.No wind88%30.04 "HgN/A
9:00 pm68 °FPassing clouds.No wind83%30.04 "HgN/A
8:00 pm70 °FPassing clouds.No wind78%30.03 "HgN/A
7:00 pm72 °FPassing clouds.No wind78%30.03 "HgN/A
6:00 pm73 °FPassing clouds.No wind69%30.02 "HgN/A
5:00 pm75 °FPassing clouds.3 mph65%30.02 "HgN/A
4:00 pm79 °FPassing clouds.3 mph61%30.01 "HgN/A
3:00 pm75 °FScattered clouds.3 mph65%30.00 "HgN/A
2:00 pm77 °FScattered clouds.5 mph61%30.02 "HgN/A
1:00 pm79 °FScattered clouds.2 mph65%30.04 "HgN/A
12:00 pm75 °FScattered clouds.1 mph65%30.07 "HgN/A
11:00 am75 °FPassing clouds.2 mph65%30.09 "HgN/A
Weather by CustomWeather, © 2017

See weather overviewHow to use our weather pages